This demonstration page uses our WeatherBlox Daily Observations layout. Learn more.

40.92945, -100.16068

Hourly Observations for February 14, 2019

Temp ( °F °C ) Dew Point ( °F °C ) Humidity (%) Winds ( mph kmh ) Pressure ( in mb ) Visibility ( mi km ) Precip ( " mm )
12:15 am 00:15 Clear 32 -0.2 27 -2.7 83 83 Calm 29.56 1001 10 16.0934 0 0
12:35 am 00:35 Clear 31 -0.7 27 -2.8 86 86 N 3 6 29.56 1001 10 16.0934 0 0
12:55 am 00:55 Clear 29 -1.9 26 -3.4 90 90 NW 6 9 29.58 1002 10 16.0934 0 0
1:15 am 01:15 Clear 30 -1 27 -3 86 86 NNW 9 15 29.58 1002 10 16.0934 0 0
1:35 am 01:35 Clear 31 -0.8 27 -2.8 86 86 NW 6 9 29.56 1001 10 16.0934 0 0
1:55 am 01:55 Clear 31 -0.6 27 -2.9 85 85 Calm 29.56 1001 10 16.0934 0 0
2:15 am 02:15 Clear 30 -1.2 26 -3.1 87 87 W 8 13 29.57 1001 10 16.0934 0 0
2:35 am 02:35 Clear 30 -1 27 -3 86 86 W 7 11 29.57 1001 10 16.0934 0 0
2:55 am 02:55 Clear 31 -0.3 27 -2.7 84 84 W 9 15 29.56 1001 10 16.0934 0 0
3:15 am 03:15 Clear 32 -0.2 27 -2.7 83 83 WNW 8 13 29.56 1001 10 16.0934 0 0
3:35 am 03:35 Clear 30 -1 26 -3.1 86 86 W 7 11 29.57 1001 10 16.0934 0 0
3:55 am 03:55 Clear 30 -1.1 26 -3.3 85 85 W 8 13 29.58 1002 10 16.0934 0 0
4:15 am 04:15 Clear 30 -1.2 26 -3.3 86 86 W 9 15 29.59 1002 10 16.0934 0 0
4:35 am 04:35 Clear 31 -0.8 26 -3.2 84 84 W 6 9 29.58 1002 10 16.0934 0 0
4:55 am 04:55 Clear 30 -1 26 -3.4 84 84 W 7 11 29.6 1002 10 16.0934 0 0
5:15 am 05:15 Clear 30 -1 26 -3.4 84 84 W 8 13 29.61 1003 10 16.0934 0 0
5:35 am 05:35 Clear 30 -1.2 26 -3.6 84 84 WNW 6 9 29.61 1003 10 16.0934 0 0
5:55 am 05:55 Clear 29 -1.5 25 -3.8 85 85 W 3 6 29.62 1003 10 16.0934 0 0
6:15 am 06:15 Clear 30 -1.1 26 -3.3 85 85 WNW 9 15 29.62 1003 10 16.0934 0 0
6:35 am 06:35 Clear 31 -0.4 27 -3 83 83 W 6 9 29.62 1003 10 16.0934 0 0
6:55 am 06:55 Clear 31 -0.5 26 -3.2 82 82 W 8 13 29.63 1003 10 16.0934 0 0
7:15 am 07:15 Clear 30 -1.2 26 -3.5 85 85 W 9 15 29.65 1004 10 16.0934 0 0
7:35 am 07:35 Sunny 30 -1 26 -3.5 83 83 WNW 8 13 29.66 1004 10 16.0934 0 0
7:55 am 07:55 Sunny 31 -0.7 26 -3.1 84 84 WNW 9 15 29.66 1004 10 16.0934 0 0
8:15 am 08:15 Sunny 32 -0.1 27 -2.7 83 83 WNW 10 17 29.7 1006 10 16.0934 0 0
8:35 am 08:35 Sunny 35 1.5 29 -1.7 80 80 N 20 31 29.7 1006 10 16.0934 0 0
8:55 am 08:55 Sunny 32 -0.1 26 -3.6 78 78 N 22 35 29.77 1008 10 16.0934 0 0
9:15 am 09:15 Partly Cloudy 27 -2.6 22 -5.6 80 80 N 21 33 29.81 1010 10 16.0934 0 0
9:35 am 09:35 Partly Cloudy 26 -3.1 19 -7.1 74 74 N 21 33 29.86 1011 10 16.0934 0 0
9:55 am 09:55 Sunny 26 -3.2 17 -8.1 69 69 NNW 26 43 29.88 1012 10 16.0934 0 0
10:15 am 10:15 Sunny 26 -3.3 16 -8.8 66 66 N 21 33 29.9 1012 10 16.0934 0 0
10:35 am 10:35 Sunny 26 -3.2 15 -9.2 64 64 N 21 33 29.91 1013 10 16.0934 0 0
10:55 am 10:55 Sunny 27 -3 14 -9.9 59 59 N 23 37 29.93 1013 10 16.0934 0 0
11:15 am 11:15 Sunny 27 -2.7 14 -9.8 59 59 N 24 39 29.93 1014 10 16.0934 0 0
11:35 am 11:35 Sunny 28 -2.2 14 -9.8 56 56 N 18 30 29.94 1014 10 16.0934 0 0
11:55 am 11:55 Sunny 28 -2.2 13 -10.3 54 54 N 21 33 29.97 1015 10 16.0934 0 0
12:15 pm 12:15 Mostly Cloudy 28 -2.5 13 -10.4 55 55 NNW 23 37 29.99 1016 10 16.0934 0 0
12:35 pm 12:35 Mostly Cloudy 27 -2.8 13 -10.7 55 55 N 22 35 29.98 1015 10 16.0934 0 0
12:55 pm 12:55 Mostly Cloudy 27 -2.6 13 -10.3 56 56 N 22 35 30 1016 10 16.0934 0 0
1:15 pm 13:15 Cloudy 27 -2.6 14 -10.2 56 56 N 26 43 30 1016 10 16.0934 0 0
1:35 pm 13:35 Cloudy 26 -3.1 13 -10.7 56 56 N 23 37 30 1016 10 16.0934 0 0
1:55 pm 13:55 Cloudy 28 -2.4 13 -10.6 54 54 NNW 20 31 30 1016 10 16.0934 0 0
2:15 pm 14:15 Mostly Cloudy 28 -2.5 14 -9.9 57 57 N 28 44 30 1016 10 16.0934 0 0
2:35 pm 14:35 Sunny 29 -1.5 15 -9.6 54 54 NNW 25 41 29.99 1016 10 16.0934 0 0
2:55 pm 14:55 Sunny 29 -1.5 14 -10.2 52 52 N 21 33 30 1016 10 16.0934 0 0
3:15 pm 15:15 Sunny 30 -1.2 13 -10.3 50 50 N 24 39 29.98 1015 10 16.0934 0 0
3:35 pm 15:35 Sunny 30 -1.3 13 -10.6 50 50 N 23 37 29.97 1015 10 16.0934 0 0
3:55 pm 15:55 Sunny 29 -1.5 13 -10.5 51 51 N 25 41 29.96 1015 10 16.0934 0 0
4:15 pm 16:15 Sunny 29 -1.9 13 -10.8 51 51 N 18 30 29.99 1015 10 16.0934 0 0
4:35 pm 16:35 Sunny 28 -2.3 12 -11.1 51 51 N 20 31 30.01 1016 10 16.0934 0 0
4:55 pm 16:55 Sunny 28 -2.5 12 -11.2 52 52 NNE 16 26 30.04 1017 10 16.0934 0 0
5:15 pm 17:15 Partly Cloudy 27 -3 11 -11.5 52 52 N 13 20 30.08 1019 10 16.0934 0 0
5:35 pm 17:35 Partly Cloudy 26 -3.1 11 -11.4 53 53 N 10 17 30.09 1019 10 16.0934 0 0
6:15 pm 18:15 Mostly Cloudy 25 -3.7 12 -11.2 56 56 N 12 19 30.1 1019 10 16.0934 0 0
6:35 pm 18:35 Mostly Cloudy 24 -4.2 11 -11.5 57 57 NNE 10 17 30.11 1020 10 16.0934 0 0
6:55 pm 18:55 Cloudy 24 -4.3 11 -11.5 58 58 N 12 19 30.12 1020 10 16.0934 0 0
7:15 pm 19:15 Partly Cloudy 24 -4.5 11 -11.8 57 57 N 9 15 30.13 1020 10 16.0934 0 0
7:35 pm 19:35 Mostly Cloudy 23 -4.8 10 -12.3 56 56 NNE 10 17 30.15 1021 10 16.0934 0 0
7:55 pm 19:55 Cloudy 23 -4.8 9 -12.7 54 54 N 10 17 30.16 1021 10 16.0934 0 0
8:15 pm 20:15 Cloudy 23 -5 9 -13 54 54 NNE 10 17 30.15 1021 10 16.0934 0 0
8:35 pm 20:35 Cloudy 22 -5.3 8 -13.2 54 54 N 12 19 30.14 1021 10 16.0934 0 0
8:55 pm 20:55 Cloudy 22 -5.5 8 -13.1 55 55 NNE 10 17 30.14 1021 10 16.0934 0 0
9:15 pm 21:15 Cloudy 22 -5.6 8 -13.2 55 55 NNE 12 19 30.14 1021 10 16.0934 0 0
9:35 pm 21:35 Cloudy 22 -5.8 8 -13.5 55 55 NNE 14 22 30.16 1021 10 16.0934 0 0
9:55 pm 21:55 Cloudy 21 -6 8 -13.5 56 56 NNE 10 17 30.18 1022 10 16.0934 0 0
10:15 pm 22:15 Cloudy 21 -6.1 7 -13.7 55 55 NNE 13 20 30.16 1021 10 16.0934 0 0
10:35 pm 22:35 Cloudy 21 -6.2 8 -13.5 57 57 N 14 22 30.16 1021 10 16.0934 0 0
10:55 pm 22:55 Cloudy 21 -6.2 8 -13.2 58 58 NNE 10 17 30.16 1021 10 16.0934 0 0
11:15 pm 23:15 Cloudy 20 -6.5 8 -13.2 59 59 NNE 14 22 30.14 1021 10 16.0934 0 0
11:35 pm 23:35 Cloudy 20 -6.6 7 -14 56 56 NNE 12 19 30.17 1022 10 16.0934 0 0
11:55 pm 23:55 Cloudy 19 -7 5 -14.9 54 54 NNE 10 17 30.18 1022 10 16.0934 0 0

Powered by AerisWeather